{"data":{"norad_id":66211,"epoch":"2026-09-20T08:42:44.864928Z","epoch_age_seconds":108427,"freshness":"FRESH","line1":"1 66211U 25244F   26263.36301927  .00026385  00000+0  78928-3 0  9993","line2":"2 66211  53.1603  42.2194 0001567  84.0975 276.0206 15.34400270 51500","mean_motion":15.3440027,"eccentricity":0.0001567,"inclination_deg":53.1603,"raan_deg":42.2194,"arg_perigee_deg":84.0975,"mean_anomaly_deg":276.0206,"bstar":0.00078928,"rev_number":5150,"period_min":93.847741567459,"perigee_km":461.63047817043,"apogee_km":463.77439725021,"semimajor_km":6840.8394377103,"source":"CELESTRAK","updated_at":"2026-09-21T09:00:35.840634Z"}}